sat.trackr.live / text

‹ back to catalog

EUTELSAT 33F

NORAD 29270 · 2006-032A

PAYLOAD ACTIVE UNKNOWN

§ Identity

Operator
Country
EUTE
Launch date
2006-08-04
Launch site
TYMSC
Launch vehicle
Mass (kg)
RCS (m²)
31.62

Purposes: comms

External: N2YO · Heavens-Above · Gunter

§ Orbital elements

Epoch: 2026-09-19T19:11:38.543424Z

Period
1,436.10 min
Inclination
1.8989°
Eccentricity
0.0003361
Mean motion
1.00271236 rev/d
Perigee alt
35,772.6 km
Apogee alt
35,800.9 km
Semi-major
42,164.9 km
B*
0.0000e+0
RAAN
81.0457°
Arg perigee
90.0598°
Mean anomaly
148.6072°
Rev number
4,825

§ Raw data

EUTELSAT 33F1 29270U 06032A   26262.79975166  .00000152  00000+0  00000+0 0  99952 29270   1.8989  81.0457 0003361  90.0598 148.6072  1.00271236 48255

JSON: /api/v1/satellites/29270 · /tle

For live sub-satellite position, see the globe view (requires WebGL).

§ Visibility from observer

Set your observer location to see the next 7 days of passes ≥ 10°. The values pass through the URL so the page stays shareable.

No JS? Fill the form by hand. The geolocation button needs JavaScript.